Location: Newark
(53.2000°N, 6.1000°W)
Time: 22:31:25
(UTC+00:00)

ISS - Pass Details

Date: 01 October 2020
Orbit: 417 x 420 km, 51.6° (Epoch: 29 October)

Event Time Altitude Azimuth Distance (km) Brightness Sun altitude
Rises 19:02:33 0° 277° (W) 2,370 2.4 -10.2°
Reaches altitude 10° 19:04:42 10° 272° (W) 1,505 0.6 -10.5°
Maximum altitude 19:07:58 48° 197° (SSW) 560 -3.1 -11.0°
Enters shadow 19:10:28 16° 126° (SE) 1,206 -2.0 -11.3°
